,,PA_Meas_PMT16A,,PR_Meas_QMR101_102,,RH_Meas_QMH101,,SR_Meas_QMS101,,TA_Meas_QMH101,,GenWind,,GenWind,
time,status,PA,status,PR,status,RH,status,SR,status,TA,status,DirAvg,status,SpdAvg,
2010-04-25, 00:00:05,VALID,917.463,VALID,0,VALID,88.828,VALID,0,VALID,21.086,VALID,108,VALID,0.913281,
2010-04-25, 00:01:05,VALID,917.447,VALID,0,VALID,88.8509,VALID,0,VALID,21.086,VALID,124,VALID,1.85898,
2010-04-25, 00:02:05,VALID,917.443,VALID,0,VALID,89.0263,VALID,0,VALID,21.0876,VALID,133,VALID,1.44102,
2010-04-25, 00:03:05,VALID,917.41,VALID,0,VALID,89.3159,VALID,0.107441,VALID,21.0486,VALID,111,VALID,1.375,
2010-04-25, 00:04:05,VALID,917.439,VALID,0,VALID,89.4913,VALID,0,VALID,20.9885,VALID,111,VALID,1.29531,
2010-04-25, 00:05:05,VALID,917.416,VALID,0,VALID,89.6209,VALID,0.107441,VALID,20.9706,VALID,127,VALID,1.62578,
2010-04-25, 00:06:05,VALID,917.402,VALID,0,VALID,89.8115,VALID,0,VALID,20.9316,VALID,106,VALID,1.50312,
2010-04-25, 00:07:05,VALID,917.435,VALID,0,VALID,89.9106,VALID,0,VALID,20.891,VALID,121,VALID,1.76172,
2010-04-25, 00:08:05,VALID,917.41,VALID,0,VALID,89.8648,VALID,0,VALID,20.9316,VALID,133,VALID,1.74961,
2010-04-25, 00:09:05,VALID,917.439,VALID,0,VALID,89.7505,VALID,0,VALID,20.93,VALID,101,VALID,1.08125,
2010-04-25, 00:10:05,VALID,917.429,VALID,0,VALID,89.659,VALID,0.107441,VALID,20.9706,VALID,103,VALID,1.46445,
2010-04-25, 00:11:05,VALID,917.432,VALID,0,VALID,89.6514,VALID,0,VALID,20.9495,VALID,120,VALID,1.00312,
2010-04-25, 00:12:05,VALID,917.449,VALID,0,VALID,89.415,VALID,0,VALID,20.969,VALID,142,VALID,1.32656,
2010-04-25, 00:13:05,VALID,917.452,VALID,0,VALID,89.415,VALID,0,VALID,20.9901,VALID,131,VALID,1.57969,
2010-04-25, 00:14:05,VALID,917.469,VALID,0,VALID,89.4989,VALID,0,VALID,20.9495,VALID,106,VALID,1.7543,
2010-04-25, 00:15:05,VALID,917.479,VALID,0,VALID,89.6742,VALID,0,VALID,20.9495,VALID,126,VALID,1.67031,
2010-04-25, 00:16:05,VALID,917.459,VALID,0,VALID,89.5675,VALID,0,VALID,20.9495,VALID,133,VALID,1.96992,
2010-04-25, 00:17:05,VALID,917.487,VALID,0,VALID,89.2245,VALID,0,VALID,21.0096,VALID,141,VALID,1.66289,
2010-04-25, 00:18:05,VALID,917.516,VALID,0,VALID,88.8662,VALID,0,VALID,21.0291,VALID,149,VALID,1.46367,
2010-04-25, 00:19:05,VALID,917.504,VALID,0,VALID,88.3554,VALID,0,VALID,21.1071,VALID,153,VALID,1.45469,
2010-04-25, 00:20:05,VALID,917.532,VALID,0,VALID,87.7684,VALID,0,VALID,21.1657,VALID,132,VALID,1.6293,
2010-04-25, 00:21:05,VALID,917.494,VALID,0,VALID,86.9984,VALID,0,VALID,21.2031,VALID,135,VALID,1.16055,
2010-04-25, 00:22:05,VALID,917.513,VALID,0,VALID,87.1051,VALID,0,VALID,21.2226,VALID,135,VALID,1.5457,
2010-04-25, 00:23:05,VALID,917.482,VALID,0,VALID,86.9603,VALID,0,VALID,21.2437,VALID,135,VALID,1.33008,
2010-04-25, 00:24:05,VALID,917.418,VALID,0,VALID,86.7316,VALID,0,VALID,21.2616,VALID,135,VALID,0.977344,
2010-04-25, 00:25:05,VALID,917.423,VALID,0,VALID,86.7164,VALID,0,VALID,21.2811,VALID,135,VALID,1.23867,
2010-04-25, 00:26:05,VALID,917.42,VALID,0,VALID,86.7926,VALID,0,VALID,21.2616,VALID,135,VALID,1.60898,
2010-04-25, 00:27:05,VALID,917.407,VALID,0,VALID,86.5182,VALID,0.107441,VALID,21.2827,VALID,136,VALID,0.983203,
2010-04-25, 00:28:05,VALID,917.415,VALID,0,VALID,86.1446,VALID,0,VALID,21.3006,VALID,136,VALID,1.60547,
2010-04-25, 00:29:05,VALID,917.418,VALID,0,VALID,85.55,VALID,0,VALID,21.3591,VALID,133,VALID,1.44297,
2010-04-25, 00:30:05,VALID,917.406,VALID,0,VALID,85.3746,VALID,0,VALID,21.4193,VALID,115,VALID,1.26875,
2010-04-25, 00:31:05,VALID,917.424,VALID,0,VALID,85.0773,VALID,0,VALID,21.4583,VALID,115,VALID,1.3082,
2010-04-25, 00:32:05,VALID,917.404,VALID,0,VALID,84.7724,VALID,0,VALID,21.4973,VALID,129,VALID,1.48828,
2010-04-25, 00:33:05,VALID,917.384,VALID,0,VALID,85.0545,VALID,0,VALID,21.5168,VALID,129,VALID,1.13008,
2010-04-25, 00:34:05,VALID,917.371,VALID,0,VALID,85.245,VALID,0,VALID,21.4778,VALID,129,VALID,1.64023,
2010-04-25, 00:35:05,VALID,917.354,VALID,0,VALID,85.3823,VALID,0,VALID,21.4583,VALID,120,VALID,1.56875,
2010-04-25, 00:36:05,VALID,917.375,VALID,0,VALID,85.7863,VALID,0,VALID,21.4388,VALID,128,VALID,0.999609,
2010-04-25, 00:37:05,VALID,917.333,VALID,0,VALID,85.7329,VALID,0,VALID,21.3803,VALID,120,VALID,1.64844,
2010-04-25, 00:38:05,VALID,917.336,VALID,0,VALID,86.0912,VALID,0,VALID,21.3217,VALID,97,VALID,0.985937,
2010-04-25, 00:39:05,VALID,917.297,VALID,0,VALID,85.8854,VALID,0,VALID,21.3022,VALID,97,VALID,1.21484,
2010-04-25, 00:40:05,VALID,917.26,VALID,0,VALID,85.9998,VALID,0,VALID,21.2811,VALID,128,VALID,1.44102,
2010-04-25, 00:41:05,VALID,917.254,VALID,0,VALID,86.1294,VALID,0,VALID,21.3022,VALID,115,VALID,1.13984,
2010-04-25, 00:42:05,VALID,917.19,VALID,0,VALID,85.9693,VALID,0,VALID,21.3217,VALID,126,VALID,1.54062,
2010-04-25, 00:43:05,VALID,917.164,VALID,0,VALID,85.9083,VALID,0,VALID,21.3412,VALID,130,VALID,1.4082,
2010-04-25, 00:44:05,VALID,917.132,VALID,0,VALID,85.7024,VALID,0,VALID,21.3608,VALID,137,VALID,1.4793,
2010-04-25, 00:45:05,VALID,917.133,VALID,0,VALID,85.672,VALID,0,VALID,21.3998,VALID,135,VALID,1.50195,
2010-04-25, 00:46:05,VALID,917.099,VALID,0,VALID,85.6567,VALID,0,VALID,21.3998,VALID,124,VALID,1.6625,
2010-04-25, 00:47:05,VALID,917.086,VALID,0,VALID,85.8549,VALID,0,VALID,21.3803,VALID,132,VALID,1.39258,
2010-04-25, 00:48:05,VALID,917.053,VALID,0,VALID,86.0989,VALID,0,VALID,21.3412,VALID,113,VALID,1.11055,
2010-04-25, 00:49:05,VALID,917.021,VALID,0,VALID,86.2742,VALID,0,VALID,21.3217,VALID,112,VALID,1.46445,
2010-04-25, 00:50:05,VALID,917.008,VALID,0,VALID,86.3733,VALID,0,VALID,21.2827,VALID,111,VALID,1.10547,
2010-04-25, 00:51:05,VALID,916.974,VALID,0,VALID,86.5563,VALID,0,VALID,21.2632,VALID,128,VALID,0.926953,
2010-04-25, 00:52:05,VALID,916.958,VALID,0,VALID,86.3657,VALID,0,VALID,21.2827,VALID,151,VALID,0.988672,
2010-04-25, 00:53:05,VALID,916.972,VALID,0,VALID,86.2971,VALID,0,VALID,21.2827,VALID,138,VALID,1.48516,
2010-04-25, 00:54:05,VALID,916.959,VALID,0,VALID,86.419,VALID,0,VALID,21.2827,VALID,134,VALID,1.37305,
2010-04-25, 00:55:05,VALID,916.966,VALID,0,VALID,86.5486,VALID,0,VALID,21.2632,VALID,133,VALID,1.71563,
2010-04-25, 00:56:05,VALID,916.944,VALID,0,VALID,86.6554,VALID,0,VALID,21.2632,VALID,148,VALID,1.36484,
2010-04-25, 00:57:05,VALID,916.926,VALID,0,VALID,86.6325,VALID,0.107441,VALID,21.2421,VALID,133,VALID,1.37656,
2010-04-25, 00:58:05,VALID,916.929,VALID,0,VALID,86.8307,VALID,0,VALID,21.2453,VALID,124,VALID,0.844922,
2010-04-25, 00:59:05,VALID,916.898,VALID,0,VALID,86.8078,VALID,0,VALID,21.2047,VALID,141,VALID,1.28555,
2010-04-25, 01:00:05,VALID,916.889,VALID,0,VALID,86.8841,VALID,0,VALID,21.1852,VALID,142,VALID,1.4125,
2010-04-25, 01:01:05,VALID,916.88,VALID,0,VALID,87.4177,VALID,0,VALID,21.1461,VALID,142,VALID,0.960547,
2010-04-25, 01:02:05,VALID,916.867,VALID,0,VALID,87.4863,VALID,0,VALID,21.0876,VALID,142,VALID,1.8,
2010-04-25, 01:03:05,VALID,916.829,VALID,0,VALID,87.7303,VALID,0,VALID,21.0876,VALID,153,VALID,0.658594,
2010-04-25, 01:04:05,VALID,916.807,VALID,0,VALID,87.433,VALID,0,VALID,21.0681,VALID,153,VALID,1.05078,
2010-04-25, 01:05:05,VALID,916.799,VALID,0,VALID,87.5016,VALID,0,VALID,21.0681,VALID,153,VALID,1.3707,
2010-04-25, 01:06:05,VALID,916.791,VALID,0,VALID,87.4101,VALID,0,VALID,21.0681,VALID,134,VALID,1.64141,
2010-04-25, 01:07:05,VALID,916.773,VALID,0,VALID,87.2729,VALID,0,VALID,21.0681,VALID,129,VALID,1.33281,
2010-04-25, 01:08:05,VALID,916.739,VALID,0,VALID,87.0975,VALID,0.107441,VALID,21.125,VALID,143,VALID,1.43867,
2010-04-25, 01:09:05,VALID,916.693,VALID,0,VALID,87.0365,VALID,0,VALID,21.1461,VALID,134,VALID,1.45781,
2010-04-25, 01:10:05,VALID,916.709,VALID,0,VALID,86.8612,VALID,0,VALID,21.1852,VALID,130,VALID,1.20508,
2010-04-25, 01:11:05,VALID,916.685,VALID,0,VALID,87.1661,VALID,0,VALID,21.1461,VALID,127,VALID,0.519141,
2010-04-25, 01:12:05,VALID,916.688,VALID,0,VALID,87.0899,VALID,0,VALID,21.086,VALID,127,VALID,0.757813,
2010-04-25, 01:13:05,VALID,916.657,VALID,0,VALID,87.2347,VALID,0,VALID,21.0665,VALID,127,VALID,1.19453,
2010-04-25, 01:14:05,VALID,916.632,VALID,0,VALID,87.5092,VALID,0,VALID,21.008,VALID,126,VALID,1.2332,
2010-04-25, 01:15:05,VALID,916.616,VALID,0,VALID,87.8675,VALID,0,VALID,20.9901,VALID,126,VALID,1.30625,
2010-04-25, 01:16:05,VALID,916.581,VALID,0,VALID,88.1724,VALID,0,VALID,20.9527,VALID,126,VALID,1.27383,
2010-04-25, 01:17:05,VALID,916.572,VALID,0,VALID,88.4164,VALID,0,VALID,20.912,VALID,126,VALID,0.850781,
2010-04-25, 01:18:05,VALID,916.538,VALID,0,VALID,88.5231,VALID,0,VALID,20.8925,VALID,105,VALID,1.59609,
2010-04-25, 01:19:05,VALID,916.511,VALID,0,VALID,88.6222,VALID,0,VALID,20.873,VALID,125,VALID,1.09805,
2010-04-25, 01:20:05,VALID,916.518,VALID,0,VALID,88.5079,VALID,0,VALID,20.873,VALID,125,VALID,1.46133,
2010-04-25, 01:21:05,VALID,916.492,VALID,0,VALID,88.4316,VALID,0,VALID,20.873,VALID,125,VALID,1.49766,
2010-04-25, 01:22:05,VALID,916.488,VALID,0,VALID,88.3249,VALID,0,VALID,20.873,VALID,130,VALID,1.58711,
2010-04-25, 01:23:05,VALID,916.482,VALID,0,VALID,88.3554,VALID,0,VALID,20.8925,VALID,149,VALID,1.37539,
2010-04-25, 01:24:05,VALID,916.467,VALID,0,VALID,88.4774,VALID,0,VALID,20.912,VALID,149,VALID,1.34609,
2010-04-25, 01:25:05,VALID,916.439,VALID,0,VALID,88.7442,VALID,0,VALID,20.873,VALID,149,VALID,1.01797,
2010-04-25, 01:26:05,VALID,916.476,VALID,0,VALID,88.9881,VALID,0,VALID,20.8145,VALID,149,VALID,1.33281,
2010-04-25, 01:27:05,VALID,916.434,VALID,0,VALID,89.2473,VALID,0,VALID,20.795,VALID,148,VALID,1.30156,
2010-04-25, 01:28:05,VALID,916.428,VALID,0,VALID,89.3388,VALID,0,VALID,20.7755,VALID,132,VALID,1.30156,
2010-04-25, 01:29:05,VALID,916.42,VALID,0,VALID,89.4303,VALID,0,VALID,20.7365,VALID,124,VALID,1.50117,
2010-04-25, 01:30:05,VALID,916.401,VALID,0,VALID,89.5599,VALID,0,VALID,20.7154,VALID,104,VALID,1.34336,
2010-04-25, 01:31:05,VALID,916.386,VALID,0,VALID,89.7429,VALID,0,VALID,20.6959,VALID,104,VALID,1.53125,
2010-04-25, 01:32:05,VALID,916.39,VALID,0,VALID,89.8877,VALID,0,VALID,20.6975,VALID,104,VALID,1.22734,
2010-04-25, 01:33:05,VALID,916.383,VALID,0,VALID,89.9487,VALID,0,VALID,20.6975,VALID,104,VALID,1.24414,
2010-04-25, 01:34:05,VALID,916.356,VALID,0,VALID,90.0173,VALID,0,VALID,20.6569,VALID,120,VALID,1.35312,
2010-04-25, 01:35:05,VALID,916.361,VALID,0,VALID,90.124,VALID,0,VALID,20.678,VALID,106,VALID,1.35508,
2010-04-25, 01:36:05,VALID,916.351,VALID,0,VALID,90.1316,VALID,0,VALID,20.6374,VALID,106,VALID,1.41055,
2010-04-25, 01:37:05,VALID,916.311,VALID,0,VALID,90.0097,VALID,0,VALID,20.678,VALID,134,VALID,1.23242,
2010-04-25, 01:38:05,VALID,916.264,VALID,0,VALID,90.0097,VALID,0,VALID,20.6569,VALID,125,VALID,1.25625,
2010-04-25, 01:39:05,VALID,916.29,VALID,0,VALID,89.9639,VALID,0,VALID,20.678,VALID,132,VALID,1.34297,
2010-04-25, 01:40:05,VALID,916.23,VALID,0,VALID,89.9411,VALID,0,VALID,20.6975,VALID,132,VALID,1.33672,
2010-04-25, 01:41:05,VALID,916.233,VALID,0,VALID,89.8343,VALID,0,VALID,20.6975,VALID,134,VALID,1.67578,
2010-04-25, 01:42:05,VALID,916.177,VALID,0,VALID,89.8572,VALID,0,VALID,20.717,VALID,135,VALID,1.0707,
2010-04-25, 01:43:05,VALID,916.195,VALID,0,VALID,89.8115,VALID,0,VALID,20.717,VALID,135,VALID,1.59375,
2010-04-25, 01:44:05,VALID,916.141,VALID,0,VALID,89.7962,VALID,0,VALID,20.717,VALID,135,VALID,1.87734,
2010-04-25, 01:45:05,VALID,916.122,VALID,0,VALID,89.7352,VALID,0,VALID,20.7365,VALID,135,VALID,1.84063,
2010-04-25, 01:46:05,VALID,916.091,VALID,0,VALID,89.7047,VALID,0,VALID,20.7365,VALID,135,VALID,1.56094,
2010-04-25, 01:47:05,VALID,916.064,VALID,0,VALID,89.7124,VALID,0,VALID,20.756,VALID,135,VALID,1.85117,
2010-04-25, 01:48:05,VALID,916.048,VALID,0,VALID,89.8115,VALID,0,VALID,20.717,VALID,135,VALID,1.00273,
2010-04-25, 01:49:05,VALID,916.021,VALID,0,VALID,89.8496,VALID,0,VALID,20.6959,VALID,147,VALID,1.24648,
2010-04-25, 01:50:05,VALID,916.015,VALID,0,VALID,89.8953,VALID,0,VALID,20.717,VALID,159,VALID,0.914844,
2010-04-25, 01:51:05,VALID,916.012,VALID,0,VALID,89.9944,VALID,0,VALID,20.717,VALID,166,VALID,1.14883,
2010-04-25, 01:52:05,VALID,915.994,VALID,0,VALID,90.124,VALID,0,VALID,20.6975,VALID,150,VALID,1.09023,
2010-04-25, 01:53:05,VALID,915.995,VALID,0,VALID,90.2689,VALID,0,VALID,20.639,VALID,147,VALID,1.04844,
2010-04-25, 01:54:05,VALID,915.979,VALID,0,VALID,90.3375,VALID,0,VALID,20.6194,VALID,147,VALID,1.37969,
2010-04-25, 01:55:05,VALID,915.98,VALID,0,VALID,90.3985,VALID,0,VALID,20.5999,VALID,147,VALID,1.55664,
2010-04-25, 01:56:05,VALID,915.955,VALID,0,VALID,90.4213,VALID,0.107441,VALID,20.5999,VALID,147,VALID,1.16406,
2010-04-25, 01:57:05,VALID,915.927,VALID,0,VALID,90.429,VALID,0,VALID,20.5999,VALID,147,VALID,1.2832,
2010-04-25, 01:58:05,VALID,915.941,VALID,0,VALID,90.3604,VALID,0,VALID,20.5999,VALID,147,VALID,1.34492,
2010-04-25, 01:59:05,VALID,915.912,VALID,0,VALID,90.4442,VALID,0,VALID,20.5999,VALID,147,VALID,1.51758,
2010-04-25, 02:00:05,VALID,915.898,VALID,0,VALID,90.4671,VALID,0,VALID,20.5999,VALID,119,VALID,1.3207,
2010-04-25, 02:01:05,VALID,915.902,VALID,0,VALID,90.4747,VALID,0,VALID,20.5999,VALID,119,VALID,1.30547,
2010-04-25, 02:02:05,VALID,915.902,VALID,0,VALID,90.4137,VALID,0,VALID,20.5984,VALID,119,VALID,1.40625,
2010-04-25, 02:03:05,VALID,915.896,VALID,0,VALID,90.2765,VALID,0,VALID,20.639,VALID,116,VALID,1.61484,
2010-04-25, 02:04:05,VALID,915.855,VALID,0,VALID,90.2155,VALID,0,VALID,20.6179,VALID,130,VALID,1.41719,
2010-04-25, 02:05:05,VALID,915.893,VALID,0,VALID,90.2536,VALID,0,VALID,20.6179,VALID,130,VALID,1.25469,
2010-04-25, 02:06:05,VALID,915.889,VALID,0,VALID,90.2689,VALID,0,VALID,20.639,VALID,130,VALID,1.15898,
2010-04-25, 02:07:05,VALID,915.871,VALID,0,VALID,90.3222,VALID,0,VALID,20.6194,VALID,131,VALID,1.1207,
2010-04-25, 02:08:05,VALID,915.883,VALID,0,VALID,90.4366,VALID,0,VALID,20.5999,VALID,131,VALID,1.12305,
2010-04-25, 02:09:05,VALID,915.877,VALID,0,VALID,90.5586,VALID,0,VALID,20.5804,VALID,125,VALID,1.74453,
2010-04-25, 02:10:05,VALID,915.908,VALID,0,VALID,90.5967,VALID,0,VALID,20.5609,VALID,125,VALID,1.09102,
2010-04-25, 02:11:05,VALID,915.89,VALID,0,VALID,90.7034,VALID,0,VALID,20.5414,VALID,124,VALID,1.52344,
2010-04-25, 02:12:05,VALID,915.874,VALID,0,VALID,90.8711,VALID,0,VALID,20.5219,VALID,124,VALID,1.62617,
2010-04-25, 02:13:05,VALID,915.854,VALID,0,VALID,90.9092,VALID,0,VALID,20.5024,VALID,124,VALID,1.47656,
2010-04-25, 02:14:05,VALID,915.862,VALID,0,VALID,90.9016,VALID,0,VALID,20.5024,VALID,127,VALID,1.44922,
2010-04-25, 02:15:05,VALID,915.852,VALID,0,VALID,90.8483,VALID,0,VALID,20.5219,VALID,130,VALID,1.71016,
2010-04-25, 02:16:05,VALID,915.825,VALID,0,VALID,90.7949,VALID,0,VALID,20.5414,VALID,126,VALID,1.36445,
2010-04-25, 02:17:05,VALID,915.809,VALID,0,VALID,90.6805,VALID,0,VALID,20.5609,VALID,127,VALID,1.44023,
2010-04-25, 02:18:05,VALID,915.811,VALID,0,VALID,90.4899,VALID,0,VALID,20.5999,VALID,120,VALID,1.55781,
2010-04-25, 02:19:05,VALID,915.797,VALID,0,VALID,90.368,VALID,0,VALID,20.6194,VALID,123,VALID,1.42695,
2010-04-25, 02:20:05,VALID,915.807,VALID,0,VALID,90.307,VALID,0,VALID,20.639,VALID,123,VALID,1.19922,
2010-04-25, 02:21:05,VALID,915.752,VALID,0,VALID,90.246,VALID,0,VALID,20.639,VALID,141,VALID,1.74492,
2010-04-25, 02:22:05,VALID,915.775,VALID,0,VALID,90.124,VALID,0,VALID,20.678,VALID,124,VALID,1.51133,
2010-04-25, 02:23:05,VALID,915.784,VALID,0,VALID,90.185,VALID,0,VALID,20.678,VALID,119,VALID,1.48906,
2010-04-25, 02:24:05,VALID,915.742,VALID,0,VALID,90.1926,VALID,0,VALID,20.678,VALID,99,VALID,0.971094,
2010-04-25, 02:25:05,VALID,915.764,VALID,0,VALID,90.3604,VALID,0,VALID,20.639,VALID,122,VALID,1.28594,
2010-04-25, 02:26:05,VALID,915.742,VALID,0,VALID,90.4213,VALID,0,VALID,20.6179,VALID,131,VALID,1.66406,
2010-04-25, 02:27:05,VALID,915.763,VALID,0,VALID,90.3604,VALID,0,VALID,20.639,VALID,142,VALID,1.3207,
2010-04-25, 02:28:05,VALID,915.744,VALID,0,VALID,90.2994,VALID,0,VALID,20.6585,VALID,142,VALID,1.2793,
2010-04-25, 02:29:05,VALID,915.749,VALID,0,VALID,90.3527,VALID,0,VALID,20.6585,VALID,145,VALID,1.23555,
2010-04-25, 02:30:05,VALID,915.726,VALID,0,VALID,90.3146,VALID,0,VALID,20.6585,VALID,144,VALID,1.23555,
2010-04-25, 02:31:05,VALID,915.734,VALID,0,VALID,90.4442,VALID,0,VALID,20.6194,VALID,131,VALID,1.53242,
2010-04-25, 02:32:05,VALID,915.723,VALID,0,VALID,90.5204,VALID,0,VALID,20.6405,VALID,128,VALID,1.46914,
2010-04-25, 02:33:05,VALID,915.711,VALID,0,VALID,90.5509,VALID,0,VALID,20.6194,VALID,128,VALID,1.65937,
2010-04-25, 02:34:05,VALID,915.728,VALID,0,VALID,90.6119,VALID,0,VALID,20.6194,VALID,132,VALID,1.83477,
2010-04-25, 02:35:05,VALID,915.719,VALID,0,VALID,90.5814,VALID,0,VALID,20.6194,VALID,132,VALID,1.51797,
2010-04-25, 02:36:04,VALID,915.732,VALID,0,VALID,90.5509,VALID,0,VALID,20.5999,VALID,132,VALID,1.28633,
2010-04-25, 02:37:04,VALID,915.7,VALID,0,VALID,90.7415,VALID,0,VALID,20.5999,VALID,140,VALID,1.74336,
2010-04-25, 02:38:04,VALID,915.714,VALID,0,VALID,90.7034,VALID,0,VALID,20.6015,VALID,142,VALID,1.48828,
2010-04-25, 02:39:04,VALID,915.733,VALID,0,VALID,90.5967,VALID,0,VALID,20.5999,VALID,140,VALID,1.42109,
2010-04-25, 02:40:04,VALID,915.731,VALID,0,VALID,90.4823,VALID,0,VALID,20.5999,VALID,145,VALID,1.29492,
2010-04-25, 02:41:04,VALID,915.734,VALID,0,VALID,90.368,VALID,0,VALID,20.6194,VALID,116,VALID,1.23203,
2010-04-25, 02:42:04,VALID,915.785,VALID,0,VALID,90.2612,VALID,0,VALID,20.639,VALID,115,VALID,0.961328,
2010-04-25, 02:43:04,VALID,915.768,VALID,0,VALID,90.4976,VALID,0,VALID,20.639,VALID,129,VALID,1.39844,
2010-04-25, 02:44:04,VALID,915.758,VALID,0,VALID,90.4213,VALID,0,VALID,20.6194,VALID,117,VALID,0.892969,
2010-04-25, 02:45:04,VALID,915.719,VALID,0,VALID,90.5814,VALID,0,VALID,20.6194,VALID,117,VALID,1.25352,
2010-04-25, 02:46:04,VALID,915.715,VALID,0,VALID,90.5738,VALID,0,VALID,20.639,VALID,111,VALID,1.08398,
2010-04-25, 02:47:04,VALID,915.741,VALID,0,VALID,90.5357,VALID,0,VALID,20.66,VALID,143,VALID,1.39258,
2010-04-25, 02:48:04,VALID,915.677,VALID,0,VALID,90.4518,VALID,0,VALID,20.6585,VALID,137,VALID,1.2582,
2010-04-25, 02:49:04,VALID,915.705,VALID,0,VALID,90.5433,VALID,0,VALID,20.639,VALID,139,VALID,1.42852,
2010-04-25, 02:50:04,VALID,915.717,VALID,0,VALID,90.4747,VALID,0,VALID,20.6585,VALID,139,VALID,1.70234,
2010-04-25, 02:51:04,VALID,915.711,VALID,0,VALID,90.2917,VALID,0,VALID,20.678,VALID,118,VALID,1.34375,
2010-04-25, 02:52:04,VALID,915.71,VALID,0,VALID,90.1926,VALID,0,VALID,20.6975,VALID,118,VALID,1.60391,
2010-04-25, 02:53:04,VALID,915.729,VALID,0,VALID,90.1698,VALID,0,VALID,20.6975,VALID,110,VALID,1.49766,
2010-04-25, 02:54:04,VALID,915.739,VALID,0,VALID,90.1774,VALID,0,VALID,20.699,VALID,114,VALID,1.14102,
2010-04-25, 02:55:04,VALID,915.737,VALID,0,VALID,90.2384,VALID,0,VALID,20.699,VALID,113,VALID,1.15,
2010-04-25, 02:56:04,VALID,915.701,VALID,0,VALID,90.2536,VALID,0,VALID,20.678,VALID,134,VALID,1.58359,
2010-04-25, 02:57:04,VALID,915.716,VALID,0,VALID,90.2994,VALID,0,VALID,20.678,VALID,140,VALID,1.29453,
2010-04-25, 02:58:04,VALID,915.727,VALID,0,VALID,90.1926,VALID,0,VALID,20.678,VALID,139,VALID,1.23438,
2010-04-25, 02:59:04,VALID,915.732,VALID,0,VALID,90.2308,VALID,0,VALID,20.6569,VALID,141,VALID,1.15703,
2010-04-25, 03:00:04,VALID,915.751,VALID,0,VALID,90.2384,VALID,0,VALID,20.678,VALID,125,VALID,1.11602,
2010-04-25, 03:01:04,VALID,915.764,VALID,0,VALID,90.2231,VALID,0,VALID,20.678,VALID,132,VALID,1.15859,
2010-04-25, 03:02:04,VALID,915.774,VALID,0,VALID,90.2917,VALID,0,VALID,20.6975,VALID,132,VALID,1.68281,
2010-04-25, 03:03:04,VALID,915.753,VALID,0,VALID,90.1698,VALID,0,VALID,20.6975,VALID,135,VALID,1.37266,
2010-04-25, 03:04:04,VALID,915.754,VALID,0,VALID,90.185,VALID,0,VALID,20.6975,VALID,135,VALID,1.04258,
2010-04-25, 03:05:04,VALID,915.765,VALID,0,VALID,90.185,VALID,0,VALID,20.6585,VALID,135,VALID,1.49648,
2010-04-25, 03:06:04,VALID,915.798,VALID,0,VALID,90.1469,VALID,0,VALID,20.6585,VALID,135,VALID,1.02656,
2010-04-25, 03:07:04,VALID,915.771,VALID,0,VALID,90.1698,VALID,0,VALID,20.639,VALID,135,VALID,0.960547,
2010-04-25, 03:08:04,VALID,915.763,VALID,0,VALID,90.2765,VALID,0,VALID,20.639,VALID,135,VALID,0.933203,
2010-04-25, 03:09:04,VALID,915.778,VALID,0,VALID,90.3832,VALID,0,VALID,20.6194,VALID,135,VALID,1.32695,
2010-04-25, 03:10:04,VALID,915.794,VALID,0,VALID,90.4671,VALID,0,VALID,20.6194,VALID,135,VALID,1.25625,
2010-04-25, 03:11:04,VALID,915.778,VALID,0,VALID,90.4747,VALID,0,VALID,20.639,VALID,135,VALID,1.42773,
2010-04-25, 03:12:04,VALID,915.766,VALID,0,VALID,90.3756,VALID,0,VALID,20.6194,VALID,135,VALID,0.886719,
2010-04-25, 03:13:04,VALID,915.768,VALID,0,VALID,90.5204,VALID,0,VALID,20.639,VALID,135,VALID,1.56875,
2010-04-25, 03:14:04,VALID,915.765,VALID,0,VALID,90.4137,VALID,0,VALID,20.6194,VALID,135,VALID,1.49844,
2010-04-25, 03:15:04,VALID,915.751,VALID,0,VALID,90.5662,VALID,0,VALID,20.5999,VALID,135,VALID,1.19687,
2010-04-25, 03:16:04,VALID,915.774,VALID,0,VALID,90.5052,VALID,0,VALID,20.5804,VALID,135,VALID,1.11328,
2010-04-25, 03:17:04,VALID,915.752,VALID,0,VALID,90.6195,VALID,0,VALID,20.5414,VALID,135,VALID,0.982422,
2010-04-25, 03:18:04,VALID,915.773,VALID,0,VALID,90.9245,VALID,0,VALID,20.4634,VALID,135,VALID,0.836328,
2010-04-25, 03:19:04,VALID,915.769,VALID,0,VALID,91.3438,VALID,0,VALID,20.4259,VALID,135,VALID,1.29297,
2010-04-25, 03:20:04,VALID,915.765,VALID,0,VALID,91.542,VALID,0,VALID,20.4049,VALID,135,VALID,1.43789,
2010-04-25, 03:21:04,VALID,915.7,VALID,0,VALID,91.5039,VALID,0,VALID,20.4244,VALID,135,VALID,1.16484,
2010-04-25, 03:22:04,VALID,915.737,VALID,0,VALID,91.1989,VALID,0,VALID,20.4439,VALID,135,VALID,1.22852,
2010-04-25, 03:23:04,VALID,915.712,VALID,0,VALID,91.1151,VALID,0,VALID,20.465,VALID,135,VALID,1.23398,
2010-04-25, 03:24:04,VALID,915.682,VALID,0,VALID,91.1303,VALID,0,VALID,20.4439,VALID,135,VALID,0.944141,
2010-04-25, 03:25:04,VALID,915.712,VALID,0,VALID,91.0617,VALID,0,VALID,20.4634,VALID,135,VALID,1.1543,
2010-04-25, 03:26:04,VALID,915.662,VALID,0,VALID,91.0693,VALID,0,VALID,20.4634,VALID,135,VALID,1.20234,
2010-04-25, 03:27:04,VALID,915.656,VALID,0,VALID,91.0998,VALID,0,VALID,20.4829,VALID,135,VALID,1.00742,
2010-04-25, 03:28:04,VALID,915.658,VALID,0,VALID,91.016,VALID,0,VALID,20.4829,VALID,135,VALID,1.05898,
2010-04-25, 03:29:04,VALID,915.63,VALID,0,VALID,90.9855,VALID,0,VALID,20.4634,VALID,135,VALID,0.953125,
2010-04-25, 03:30:04,VALID,915.648,VALID,0,VALID,91.0998,VALID,0,VALID,20.4244,VALID,135,VALID,1.1082,
2010-04-25, 03:31:04,VALID,915.64,VALID,0,VALID,91.1303,VALID,0,VALID,20.4049,VALID,135,VALID,1.6,
2010-04-25, 03:32:04,VALID,915.647,VALID,0,VALID,91.1303,VALID,0,VALID,20.4259,VALID,135,VALID,1.3918,
2010-04-25, 03:33:04,VALID,915.651,VALID,0,VALID,91.0922,VALID,0,VALID,20.4049,VALID,135,VALID,1.34492,
2010-04-25, 03:34:04,VALID,915.635,VALID,0,VALID,91.1532,VALID,0,VALID,20.3854,VALID,136,VALID,1.42773,
2010-04-25, 03:35:04,VALID,915.648,VALID,0,VALID,91.1379,VALID,0,VALID,20.4049,VALID,139,VALID,1.22461,
2010-04-25, 03:36:04,VALID,915.68,VALID,0,VALID,90.9169,VALID,0,VALID,20.4439,VALID,139,VALID,1.29766,
2010-04-25, 03:37:04,VALID,915.639,VALID,0,VALID,90.833,VALID,0,VALID,20.4845,VALID,140,VALID,1.44805,
2010-04-25, 03:38:04,VALID,915.68,VALID,0,VALID,90.8483,VALID,0,VALID,20.4829,VALID,140,VALID,1.77344,
2010-04-25, 03:39:04,VALID,915.654,VALID,0,VALID,90.7568,VALID,0,VALID,20.4829,VALID,140,VALID,1.39609,
2010-04-25, 03:40:04,VALID,915.637,VALID,0,VALID,90.7873,VALID,0,VALID,20.4829,VALID,140,VALID,1.58555,
2010-04-25, 03:41:04,VALID,915.648,VALID,0,VALID,90.8787,VALID,0,VALID,20.5024,VALID,126,VALID,1.5168,
2010-04-25, 03:42:04,VALID,915.665,VALID,0,VALID,90.7949,VALID,0,VALID,20.4829,VALID,127,VALID,1.32734,
2010-04-25, 03:43:04,VALID,915.674,VALID,0,VALID,90.7491,VALID,0,VALID,20.5024,VALID,130,VALID,1.06797,
2010-04-25, 03:44:04,VALID,915.676,VALID,0,VALID,90.6272,VALID,0,VALID,20.5414,VALID,122,VALID,1.58594,
2010-04-25, 03:45:04,VALID,915.669,VALID,0,VALID,90.5204,VALID,0,VALID,20.5414,VALID,125,VALID,1.24766,
2010-04-25, 03:46:04,VALID,915.659,VALID,0,VALID,90.5204,VALID,0,VALID,20.5414,VALID,124,VALID,1.34492,